Tracking 30072 objects as of 14-Jan-2025
HD Live streaming from Space Station
objects crossing your sky now

STARLINK-2220

Track STARLINK-2220 now!
10-day predictions
STARLINK-2220 is classified as:


NORAD ID: 48570
Int'l Code: 2021-041T
Perigee: 553.4 km
Apogee: 555.3 km
Inclination: 53.1 °
Period: 95.6 minutes
Semi major axis: 6925 km
RCS: Unknown
Launch date: May 15, 2021
Source: United States (US)
Launch site: AIR FORCE EASTERN TEST RANGE (AFETR)
Your satellite tracking list
Your tracking list is empty




NASA's NSSDC Master Catalog

Two Line Element Set (TLE):
1 48570U 21041T   25013.97461233  .00002240  00000-0  16926-3 0  9993
2 48570  53.0525 225.7913 0001415  90.7530 269.3621 15.06397852202199
Source of the keplerian elements: AFSPC